GW5210 Weather Reports


time (UTC)temp
F
wind
direction
speed
knots
gust
knots
rain 1hr
in
rain 24hr
in
rain mn
in
humidity
%
barometer
mb
20260506124349 50 182 0.0 1.7 0.00 0.00 0.00 95 1019.1
20260506123344 49 90 0.0 3.5 0.00 0.00 0.00 95 1019.1
20260506122349 49 88 0.0 2.6 0.00 0.00 0.00 95 1019.2
20260506121342 49 126 0.9 2.6 0.00 0.00 0.00 97 1019.2
20260506120347 50 149 1.7 4.3 0.00 0.00 0.00 97 1019.1
20260506115341 50 90 0.0 1.7 0.00 0.00 0.00 96 1019.1
20260506114347 50 50 0.0 1.7 0.00 0.00 0.00 95 1019.0
20260506113351 50 46 0.9 1.7 0.00 0.00 0.00 96 1018.8
20260506112345 50 0.0 1.7 0.00 0.00 0.00 96 1018.8
20260506111409 50 0.0 3.5 0.00 0.00 0.00 97 1018.7
20260506110344 50 178 0.9 1.7 0.00 0.00 0.00 98 1018.6
20260506105348 50 278 0.0 0.9 0.00 0.00 0.00 98 1018.5
20260506104342 50 5 0.0 1.7 0.00 0.00 0.00 98 1018.4
20260506103346 50 0.0 0.0 0.00 0.00 0.00 97 1018.2
20260506102350 50 0.0 0.9 0.00 0.00 0.00 97 1018.1
20260506101344 50 343 0.0 1.7 0.00 0.00 0.00 99 1018.0
20260506100349 50 27 0.0 0.9 0.00 0.00 0.00 99 1017.9
20260506095343 50 90 0.0 0.9 0.00 0.00 0.00 99 1018.0
20260506094347 50 113 0.9 0.9 0.00 0.00 0.00 99 1017.9
20260506093411 49 0.0 0.9 0.00 0.00 0.00 100 1018.0
20260506092345 49 0.0 0.0 0.00 0.00 0.00 99 1018.0
20260506091349 49 59 0.9 1.7 0.00 0.00 0.00 100 1018.0
20260506090343 49 50 0.0 1.7 0.00 0.00 0.00 100 1018.0
20260506085347 49 180 0.0 1.7 0.00 0.00 0.00 100 1018.0
20260506084341 49 240 0.0 0.9 0.00 0.00 0.00 100 1017.9
20260506083346 48 90 0.0 2.6 0.00 0.00 0.00 100 1017.9
20260506082351 48 139 0.0 3.5 0.00 0.00 0.00 100 1017.8
20260506081405 48 213 0.9 3.5 0.00 0.00 0.00 100 1017.8
20260506080349 47 90 0.9 1.7 0.00 0.00 0.00 100 1017.7
20260506073342 46 0.0 0.0 0.00 0.00 0.00 97 1017.4
20260506072347 46 0.0 0.0 0.00 0.00 0.00 97 1017.3
20260506071351 46 0.0 0.0 0.00 0.00 0.00 96 1017.2
20260506070345 46 0.0 0.0 0.00 0.00 0.00 96 1017.2
20260506062351 46 0.0 0.0 0.00 0.00 0.00 92 1016.9
20260506061345 46 0.0 0.0 0.00 0.00 0.00 93 1016.9
20260506060349 46 135 0.0 0.9 0.00 0.00 0.00 93 1016.9
20260506051350 48 145 0.9 1.7 0.00 0.00 0.00 91 1016.9
20260506050344 48 126 0.9 1.7 0.00 0.00 0.00 90 1016.9
20260506044423 49 165 0.9 1.7 0.00 0.00 0.00 89 1016.7
20260506043348 49 284 0.0 1.7 0.00 0.00 0.00 91 1016.7
20260506042341 49 179 0.9 1.7 0.00 0.00 0.00 89 1016.5
20260506041426 50 5 0.0 0.9 0.00 0.00 0.00 88 1016.3
20260506040411 50 233 0.9 2.6 0.00 0.00 0.00 89 1016.1
20260506035344 51 0.0 0.0 0.00 0.00 0.00 84 1015.9
20260506034349 51 0.0 1.7 0.00 0.00 0.00 84 1015.8
20260506033343 52 45 0.0 2.6 0.00 0.00 0.00 84 1015.7
20260506032348 52 347 0.0 1.7 0.00 0.00 0.00 83 1015.7
20260506031341 52 302 0.0 4.3 0.00 0.00 0.00 84 1015.7
20260506030346 53 24 0.9 1.7 0.00 0.00 0.00 82 1015.7
20260506025351 53 39 0.9 2.6 0.00 0.00 0.00 82 1015.8
20260506024345 53 20 0.9 4.3 0.00 0.00 0.00 81 1015.8
20260506023349 54 24 1.7 5.2 0.00 0.00 0.00 81 1015.8
20260506022343 55 57 0.9 5.2 0.00 0.00 0.00 79 1015.7
20260506021348 55 327 0.9 1.7 0.00 0.00 0.00 78 1015.7
20260506020342 55 303 1.7 3.5 0.00 0.00 0.00 77 1015.7
20260506015347 55 25 0.9 6.1 0.00 0.00 0.00 78 1015.7
20260506014351 56 112 1.7 5.2 0.00 0.00 0.00 77 1015.6
20260506013345 56 60 1.7 5.2 0.00 0.00 0.00 75 1015.7
20260506012351 56 345 1.7 6.1 0.00 0.00 0.00 74 1015.8
20260506011343 57 357 2.6 4.3 0.00 0.00 0.00 74 1015.7
20260506010347 57 289 1.7 5.2 0.00 0.00 0.00 74 1015.7
20260506005341 57 162 1.7 5.2 0.00 0.00 0.00 74 1015.8
20260506004346 57 100 1.7 5.2 0.00 0.00 0.00 72 1015.8
20260506003351 58 74 0.9 4.3 0.00 0.00 0.00 71 1015.8
20260506002345 58 343 2.6 7.0 0.00 0.00 0.00 70 1015.9
20260506001350 59 322 0.9 3.5 0.00 0.00 0.00 69 1015.9
20260506000344 60 242 1.7 7.8 0.00 0.00 0.00 67 1016.0
20260505235408 60 325 1.7 6.1 0.00 0.00 0.00 66 1016.1
20260505234342 61 69 1.7 6.1 0.00 0.00 0.00 66 1016.3
20260505233347 62 272 0.9 3.5 0.00 0.00 0.00 66 1016.3
20260505232352 61 342 1.7 5.2 0.00 0.00 0.00 66 1016.4
20260505231346 61 235 2.6 6.1 0.00 0.00 0.00 68 1016.4
20260505230411 61 1 1.7 5.2 0.00 0.00 0.00 66 1016.5
20260505225344 61 334 1.7 5.2 0.00 0.00 0.00 66 1016.6
20260505224348 63 228 1.7 3.5 0.00 0.00 0.00 67 1016.6
20260505223343 63 344 0.9 4.3 0.00 0.00 0.00 67 1016.6
20260505222347 63 311 0.9 3.5 0.00 0.00 0.00 66 1016.7
20260505221352 63 59 0.9 4.3 0.00 0.00 0.00 64 1016.7
20260505220345 63 353 0.9 3.5 0.00 0.00 0.00 66 1016.8
20260505215350 64 310 1.7 3.5 0.00 0.00 0.00 62 1016.8
20260505214343 65 14 1.7 3.5 0.00 0.00 0.00 62 1016.9
20260505213348 65 5 3.5 5.2 0.00 0.00 0.00 59 1017.0
20260505212341 67 64 1.7 4.3 0.00 0.00 0.00 58 1017.1
20260505211346 67 240 1.7 3.5 0.00 0.00 0.00 62 1017.0
20260505210351 66 18 1.7 3.5 0.00 0.00 0.00 61 1016.9
20260505205345 66 120 0.9 2.6 0.00 0.00 0.00 65 1017.0
20260505204349 65 100 1.7 3.5 0.00 0.00 0.00 68 1017.0
20260505203423 64 213 1.7 4.3 0.00 0.00 0.00 67 1017.1
20260505202347 64 212 0.9 2.6 0.00 0.00 0.00 68 1017.2
20260505201401 63 221 0.9 3.5 0.00 0.00 0.00 67 1017.2
20260505200346 63 313 0.9 2.6 0.00 0.00 0.00 69 1017.2
20260505195411 62 47 0.9 3.5 0.00 0.00 0.00 70 1017.1
20260505194345 62 295 0.0 0.9 0.00 0.00 0.00 73 1017.1
20260505193410 61 340 1.7 2.6 0.00 0.00 0.00 73 1017.1
20260505192344 61 265 0.9 1.7 0.00 0.00 0.00 76 1017.1
20260505191349 60 7 0.0 2.6 0.00 0.00 0.00 76 1017.1
20260505190343 59 186 0.9 1.7 0.00 0.00 0.00 79 1017.0
20260505185408 58 353 0.0 1.7 0.00 0.00 0.00 79 1017.0
20260505184342 58 5 0.0 2.6 0.00 0.00 0.00 79 1017.0
20260505183346 58 0.0 0.9 0.00 0.00 0.00 81 1017.1
20260505182351 58 13 0.0 1.7 0.00 0.00 0.00 82 1017.1
20260505181344 57 0.0 0.9 0.00 0.00 0.00 83 1017.0
20260505180348 57 341 0.9 2.6 0.00 0.00 0.00 83 1016.9
20260505175342 56 47 0.9 1.7 0.00 0.00 0.00 85 1016.8
20260505174347 56 38 0.9 0.9 0.00 0.00 0.00 86 1016.7
20260505173351 56 0.0 0.9 0.00 0.00 0.00 88 1016.6
20260505172346 56 0.0 0.9 0.00 0.00 0.00 89 1016.6
20260505171349 55 33 0.0 2.6 0.00 0.00 0.00 90 1016.6
20260505170343 55 303 0.0 1.7 0.00 0.00 0.00 91 1016.6
20260505165348 55 321 0.0 1.7 0.00 0.00 0.00 92 1016.6
20260505164341 55 142 0.0 2.6 0.00 0.00 0.00 92 1016.6
20260505163346 54 341 0.0 2.6 0.00 0.00 0.00 94 1016.6
20260505162351 54 316 0.0 1.7 0.00 0.00 0.00 94 1016.6
20260505161344 54 268 0.0 0.9 0.00 0.00 0.00 95 1016.5
20260505160349 54 331 0.9 1.7 0.00 0.00 0.00 95 1016.5
20260505153352 53 330 0.0 0.9 0.00 0.00 0.00 98 1016.3
20260505152346 53 0.0 0.9 0.00 0.00 0.00 99 1016.2
20260505151351 52 333 0.0 0.9 0.00 0.00 0.00 99 1016.1
20260505150344 52 44 0.0 0.9 0.00 0.00 0.00 99 1016.0
20260505140349 51 135 0.0 0.9 0.00 0.00 0.00 100 1015.4